Regional Weather Roundup
Issued by NWS

Home | Current Version | Previous Version | Text Only | Print | Product List | Glossary Off
Versions: 1 2 3 4 5 6 7 8 9 10 11 12 13 14 15 16 17 18 19 20 21 22 23 24 25 26 27 28 29 30 31 32 33 34 35 36 37 38 39 40 41 42 43 44 45 46 47 48 49 50

973
ASUS43 KMKX 261811
RWRWI

WISCONSIN REGIONAL WEATHER ROUNDUP
NATIONAL WEATHER SERVICE MILWAUKEE/SULLIVAN WI
100 PM CDT THU MAY 26 2016

NOTE: "FAIR" INDICATES FEW OR NO CLOUDS BELOW 12,000 FEET WITH NO
SIGNIFICANT WEATHER AND/OR OBSTRUCTIONS TO VISIBILITY.

WIZ001-002-006>008-014>016-023>028-261900-
NORTHWEST WISCONSIN

CITY           SKY/WX    TMP DP  RH WIND       PRES   REMARKS
SUPERIOR ARPT  CLOUDY    51  49  90 NE3       29.81F
6HR MIN TEMP:  43; 6HR MAX TEMP:  51;

ASHLAND        CLOUDY    59  57  93 E3        29.81F
6HR MIN TEMP:  50; 6HR MAX TEMP:  59;

HAYWARD        MOSUNNY   73  60  63 S8        29.79S
6HR MIN TEMP:  58; 6HR MAX TEMP:  73;

SIREN          SUNNY     76  58  53 SW8       29.78S
6HR MIN TEMP:  57; 6HR MAX TEMP:  76;

CUMBERLAND     SUNNY     72  54  53 W6        29.80S
RICE LAKE      SUNNY     74  56  53 SW7       29.81S
6HR MIN TEMP:  61; 6HR MAX TEMP:  74;

CHETEK         SUNNY     74  57  54 SW3       29.80S
6HR MIN TEMP:  61; 6HR MAX TEMP:  74;

LADYSMITH      MOSUNNY   73  61  67 W6        29.83R
6HR MIN TEMP:  62; 6HR MAX TEMP:  73;

EAU CLAIRE     SUNNY     76  58  53 SW15      29.81S
6HR MIN TEMP:  60; 6HR MAX TEMP:  76; 6HR PCP: TRACE;

MENOMONIE      SUNNY     77  65  66 S12G17    29.81F
6HR MIN TEMP:  60; 6HR MAX TEMP:  77;

NEW RICHMOND   SUNNY     75  57  53 SW13      29.81S
6HR MIN TEMP:  61; 6HR MAX TEMP:  75;

OSCEOLA        SUNNY     76  59  56 W8        29.83R
6HR MIN TEMP:  63; 6HR MAX TEMP:  76;

$$

WIZ003>005-009-010-017-018-261900-
NORTH CENTRAL WISCONSIN

CITY           SKY/WX    TMP DP  RH WIND       PRES   REMARKS
MANITOWISH WTR NOT AVBL
ARBOR VITAE    CLOUDY    65  62  91 NE3       29.81F
6HR MIN TEMP:  62; 6HR MAX TEMP:  65; 6HR PCP:  0.23;

WOODRUFF       CLOUDY    65  62  91 NE3       29.81F
6HR MIN TEMP:  62; 6HR MAX TEMP:  65; 6HR PCP:  0.23;

RHINELANDER    CLOUDY    63  60  90 E6        29.83S
6HR MIN TEMP:  62; 6HR MAX TEMP:  64; 6HR PCP:  0.16;

EAGLE RIVER    RAIN      63  61  93 NW8       29.84R
LAND O LAKES   RAIN      61  60  94 N5        29.86S
6HR MIN TEMP:  60; 6HR MAX TEMP:  66; 6HR PCP:  0.40;

PHILLIPS       MOSUNNY   70  59  66 SW9       29.80S
6HR MIN TEMP:  60; 6HR MAX TEMP:  70; 6HR PCP:  0.01;

TOMAHAWK       MOSUNNY   67  62  83 SE3       29.83R
6HR MIN TEMP:  60; 6HR MAX TEMP:  67;

MEDFORD        PTSUNNY   68  63  82 SW10      29.83S
6HR MIN TEMP:  59; 6HR MAX TEMP:  68; 6HR PCP:  0.32;

MERRILL        PTSUNNY   68  63  83 S3        29.83S
$$

WIZ029-030-035-036-043>047-261900-
CENTRAL WISCONSIN

CITY           SKY/WX    TMP DP  RH WIND       PRES   REMARKS
WAUSAU         PTSUNNY   72  59  63 SW14      29.81S
6HR MIN TEMP:  62; 6HR MAX TEMP:  74; 6HR PCP:  0.17;

MOSINEE        MOSUNNY   72  63  73 W12G20    29.84S
MARSHFIELD     MOSUNNY   73  59  61 W12G22    29.83S
6HR MIN TEMP:  61; 6HR MAX TEMP:  73; 6HR PCP:  0.19;

STEVENS POINT  PTSUNNY   73  60  64 W14       29.83S
6HR MIN TEMP:  58; 6HR MAX TEMP:  73; 6HR PCP:  0.22;

WAUPACA        PTSUNNY   75  63  66 SW14      29.83S
6HR MIN TEMP:  62; 6HR MAX TEMP:  75; 6HR PCP:  0.01;

WAUTOMA        MOSUNNY   76  64  66 SW12      29.84S
6HR MIN TEMP:  58; 6HR MAX TEMP:  76; 6HR PCP:  0.05;

WISC RAPIDS    PTSUNNY   76  59  55 W15       29.84F
6HR MIN TEMP:  60; 6HR MAX TEMP:  76; 6HR PCP:  0.39;

CAMP DOUGLAS   MOSUNNY   77  72  83 SW13G20   29.84F
                                      6HR PCP:  0.37;

$$

WIZ011>013-019>022-031-037>040-048>050-261900-
NORTHEAST WISCONSIN

CITY           SKY/WX    TMP DP  RH WIND       PRES   REMARKS
ANTIGO         PTSUNNY   68  62  79 CALM      29.83F
6HR MIN TEMP:  61; 6HR MAX TEMP:  68; 6HR PCP:  0.05;

SHAWANO        MOSUNNY   74  63  66 SW12G20   29.81F
6HR MIN TEMP:  64; 6HR MAX TEMP:  75;

OCONTO         MOSUNNY   71  71 100 SE6       29.79R
STURGEON BAY   NOT AVBL
GREEN BAY      SUNNY     77  64  64 SW16G28   29.80R
6HR MIN TEMP:  63; 6HR MAX TEMP:  79;

MANITOWOC      SUNNY     73  64  73 S22G28    29.82F
6HR MIN TEMP:  54; 6HR MAX TEMP:  73; 6HR PCP: TRACE;

APPLETON       PTSUNNY   73  63  68 W17G23    29.82S
CLINTONVILLE   CLOUDY    72  61  68 SW13      29.82F
OSHKOSH        MOSUNNY   78  63  59 SW12G25   29.82S HX  80
6HR MIN TEMP:  65; 6HR MAX TEMP:  78; 6HR PCP:  0.03;

$$

WIZ032>034-041-042-053>061-261900-
SOUTHWEST WISCONSIN

CITY           SKY/WX    TMP DP  RH WIND       PRES   REMARKS
LA CROSSE      MOSUNNY   78  61  55 VRB7      29.83F HX  80
6HR MIN TEMP:  61; 6HR MAX TEMP:  78; 6HR PCP:  0.06;

SPARTA         SUNNY     75  60  58 W10G17    29.85F
6HR MIN TEMP:  59; 6HR MAX TEMP:  75; 6HR PCP:  0.07;

VIROQUA        SUNNY     75  59  57 SW14G20   29.87F
6HR MIN TEMP:  59; 6HR MAX TEMP:  75; 6HR PCP:  0.03;

BOSCOBEL       SUNNY     81  57  43 SW12      29.86F HX  81
6HR MIN TEMP:  64; 6HR MAX TEMP:  81; 6HR PCP: TRACE;

PRAIRIE DU CHI SUNNY     79  55  42 SW8       29.86S HX  80
6HR MIN TEMP:  60; 6HR MAX TEMP:  79;

PLATTEVILLE    SUNNY     81  53  37 W15G23    29.88S HX  80
6HR MIN TEMP:  64; 6HR MAX TEMP:  82;

$$

WIZ056-057-062-063-064-067-068-261900-
SOUTH CENTRAL WISCONSIN

CITY           SKY/WX    TMP DP  RH WIND       PRES   REMARKS
REEDSBURG      SUNNY     77  61  56 SW12G17   29.85F
6HR MIN TEMP:  63; 6HR MAX TEMP:  77; 6HR PCP:  0.03;

BARABOO/DELLS  MOSUNNY   77  59  52 W9G18     29.85F
6HR MIN TEMP:  64; 6HR MAX TEMP:  77; 6HR PCP:  0.06;

LONE ROCK      SUNNY     82  55  39 W12       29.85F HX  81
6HR MIN TEMP:  66; 6HR MAX TEMP:  82; 6HR PCP: TRACE;

MINERAL POINT  SUNNY     81  52  36 W8G17     29.87F HX  80
MADISON        MOSUNNY   79  58  48 SW10G21   29.84F HX  80
6HR MIN TEMP:  65; 6HR MAX TEMP:  79; 6HR PCP:  0.08;

MIDDLETON      SUNNY     80  60  50 SW12      29.85F HX  81
6HR MIN TEMP:  66; 6HR MAX TEMP:  80; 6HR PCP:  0.01;

WATERTOWN      SUNNY     78  64  61 SW16G22   29.85F HX  80
6HR MIN TEMP:  64; 6HR MAX TEMP:  78; 6HR PCP:  0.40;

MONROE         SUNNY     79  55  44 SW17      29.88F
JANESVILLE     MOSUNNY   81  63  54 SW12G17   29.87F HX  82
$$

WIZ051-052-058>065-066-070>072-261900-
SOUTHEAST WISCONSIN

CITY           SKY/WX    TMP DP  RH WIND       PRES   REMARKS
MILWAUKEE      CLOUDY    78  64  61 SW17      29.86F HX  80
6HR MIN TEMP:  67; 6HR MAX TEMP:  79; 6HR PCP:  0.03;

WAUKESHA       SUNNY     75  61  60 SW12G17   29.88S
MILWAUKEE/TIMM SUNNY     79  59  50 SW14      29.86F HX  80
RACINE         MOSUNNY   77  66  68 S15       29.89F
6HR MIN TEMP:  63; 6HR MAX TEMP:  78; 6HR PCP:  0.11;

BURLINGTON     MOSUNNY   77  64  63 S10G17    29.88F
6HR MIN TEMP:  64; 6HR MAX TEMP:  77; 6HR PCP:  0.03;

KENOSHA        CLOUDY    80  64  58 S15G21    29.88F HX  82
6HR MIN TEMP:  68; 6HR MAX TEMP:  80; 6HR PCP:  0.02;

FOND DU LAC    SUNNY     78  61  55 SW15G25   29.83R HX  80
6HR MIN TEMP:  65; 6HR MAX TEMP:  79; 6HR PCP:  0.05;

SHEBOYGAN      CLOUDY    80  63  55 SW21G26   29.83S HX  81
6HR MIN TEMP:  63; 6HR MAX TEMP:  80; 6HR PCP:  0.05;

WEST BEND      PTSUNNY   79  61  53 SW18      29.85R HX  80
JUNEAU         SUNNY     76  63  63 SW17G24   29.86F
6HR MIN TEMP:  64; 6HR MAX TEMP:  76; 6HR PCP:  0.10;

$$

LSZ147-162-261900-
LAKE SUPERIOR

STATION/POSITION TIME  TEMP    WIND        PRES    WAVE
                       AIR SEA DIR/SP/G            HT/PER
                 (UTC) (F)     (DEG/KT/KT) (MB)    (FT/S)
W MID LAKE BUOY  1750   40 38  100/ 12/ 14 1010.2F   1/ 3
DEVILS ISLAND    1800   45      40/  7/  8 1010.2R
SAXON HARBOR     1700   47     330/  3/  5 1009.8S
$$

LMZ867-665-643>646-261900-
LAKE MICHIGAN

STATION/POSITION TIME  TEMP    WIND        PRES    WAVE
                       AIR SEA DIR/SP/G            HT/PER
                 (UTC) (F)     (DEG/KT/KT) (MB)    (FT/S)
CHAMBERS ISLAND  1700   62      80/  5/  6 1009.5F
N MID LAKE BUOY  1750   48 45  180/ 10/ 10 1009.8F   2/ 3
NORTHPORT PIER   1700   55     150/  7/ 10 1010.2S
SISTER BAY       1750   73     140/ 10/ 13   N/A
ALGOMA LAKESHORE 1717          180/  5/C1F1C2F2C3F3C4F4C5F5C6F6C7F7C8M1C9M2Ca!



USA.gov is the U.S. government's official web portal to all federal, state and local government web resources and services.